Location: Notre Dame Regional High School Observatory
(37.3056°N, 89.6097°W)
Time: 14:01:09
(UTC-05:00)

Okean-O - Visible Passes

Search period start: 04 July 2015 00:00
Search period end: 14 July 2015 00:00
Orbit: 641 x 642 km, 98.1° (Epoch: 04 July)

Date Brightness Start Highest point End Pass type
(mag) Time Alt. Az. Time Alt. Az. Time Alt. Az.
04 Jul 2.7 04:54:38 10° N 04:59:04 69° WNW 05:03:28 10° SSW visible
05 Jul 5.1 03:43:18 10° NE 03:46:14 18° E 03:49:19 10° SE visible
06 Jul 4.2 04:06:25 10° NNE 04:10:23 32° E 04:14:23 10° SSE visible
07 Jul 3.1 04:30:01 10° NNE 04:34:25 61° E 04:38:48 10° S visible
08 Jul 2.6 04:53:56 10° N 04:58:22 71° WNW 05:02:46 10° SSW visible
09 Jul 5.1 03:42:38 10° NE 03:45:30 17° E 03:48:32 10° SE visible
10 Jul 4.2 04:05:43 10° NE 04:09:39 31° E 04:13:38 10° SSE visible
11 Jul 3.1 04:29:18 10° NNE 04:33:42 60° E 04:38:04 10° S visible
12 Jul 2.6 04:53:12 10° N 04:57:38 73° WNW 05:02:03 10° SSW visible
13 Jul 5.1 03:41:58 10° NE 03:44:46 17° E 03:47:44 10° SE visible
